This demonstration page uses our WeatherBlox Daily Observations layout. Learn more.

Left ArrowRight Arrow

40.97296, -117.73568

Hourly Observations for August 20, 2016

Temp ( °F °C ) Dew Point ( °F °C ) Humidity (%) Winds ( mph kmh ) Pressure ( in mb ) Visibility ( mi km ) Precip ( " mm )
12:56 am 00:56 Clear 64 17.8 26 -3.3 24 24 SE 7 11 29.89 1012 10 16 0.00 0.00
1:56 am 01:56 Clear 57 13.9 24 -4.4 28 28 SSE 6 9 29.91 1013 10 16 0.00 0.00
2:56 am 02:56 Clear 53 11.7 24 -4.4 32 32 Calm 29.92 1013 10 16 0.00 0.00
3:56 am 03:56 Clear 50 10 25 -3.9 38 38 Calm 29.93 1014 10 16 0.00 0.00
4:56 am 04:56 Clear 47 8.3 25 -3.9 42 42 SE 5 7 29.94 1014 10 16 0.00 0.00
5:56 am 05:56 Clear 46 7.8 25 -3.9 44 44 S 7 11 29.96 1014 10 16 0.00 0.00
6:56 am 06:56 Sunny 51 10.6 26 -3.3 38 38 SE 7 11 29.96 1015 10 16 0.00 0.00
7:56 am 07:56 Sunny 64 17.8 27 -2.8 25 25 SE 3 6 29.97 1015 10 16 0.00 0.00
8:56 am 08:56 Sunny 73 22.8 28 -2.2 19 19 Calm 29.96 1015 10 16 0.00 0.00
9:56 am 09:56 Sunny 80 26.7 30 -1.1 16 16 VRB 3 6 29.95 1014 10 16 0.00 0.00
10:56 am 10:56 Sunny 86 30 31 -0.6 14 14 VRB 3 6 29.92 1013 10 16 0.00 0.00
11:56 am 11:56 Sunny 91 32.8 31 -0.6 12 12 VRB 3 6 29.89 1012 10 16 0.00 0.00
12:56 pm 12:56 Sunny 93 33.9 31 -0.6 11 11 VRB 5 7 29.89 1012 10 16 0.00 0.00
1:56 pm 13:56 Sunny 95 35 27 -2.8 9 9 N 12 19 29.88 1012 10 16 0.00 0.00
2:56 pm 14:56 Sunny 96 35.6 24 -4.4 7 7 WNW 9 15 29.86 1011 10 16 0.00 0.00
3:56 pm 15:56 Sunny 97 36.1 25 -3.9 7 7 NNW 9 15 29.83 1010 10 16 0.00 0.00
4:56 pm 16:56 Sunny 96 35.6 25 -3.9 8 8 NNW 13 20 29.83 1010 10 16 0.00 0.00
5:56 pm 17:56 Sunny 95 35 27 -2.8 9 9 NW 13 20 29.81 1010 10 16 0.00 0.00
6:56 pm 18:56 Sunny 91 32.8 28 -2.2 10 10 NNE 5 7 29.80 1009 10 16 0.00 0.00
7:56 pm 19:56 Clear 86 30 29 -1.7 13 13 Calm 29.78 1008 10 16 0.00 0.00
8:56 pm 20:56 Clear 76 24.4 30 -1.1 18 18 ESE 6 9 29.79 1009 10 16 0.00 0.00
9:56 pm 21:56 Clear 70 21.1 28 -2.2 21 21 SSE 5 7 29.80 1009 10 16 0.00 0.00
10:56 pm 22:56 Clear 67 19.4 28 -2.2 23 23 SE 6 9 29.80 1009 10 16 0.00 0.00
11:56 pm 23:56 Clear 63 17.2 27 -2.8 26 26 Calm 29.81 1009 10 16 0.00 0.00

Powered by AerisWeather